Location: Jablonec nad Nisou
(50.7170°N, 15.1830°E)
Time: 18:43:12
(UTC+02:00)

ISS - Pass Details

Date: 24 March 2019
Orbit: 408 x 410 km, 51.6° (Epoch: 22 April)

Event Time Altitude Azimuth Distance (km) Brightness Sun altitude
Rises 19:27:45 0° 229° (SW) 2,328 0.5 -11.6°
Reaches altitude 10° 19:29:54 10° 221° (SW) 1,469 -0.7 -12.0°
Maximum altitude 19:32:59 38° 152° (SSE) 638 -3.2 -12.4°
Enters shadow 19:34:34 23° 98° (E) 928 -2.6 -12.7°
